timestamp,surface_pressure_avg,surface_temp_avg,battery_voltage,lat,long
2020-04-30 00:09:01+00:00,238.3431,2.3,13.29,47.84626,-54.09684
2020-04-30 00:19:01+00:00,239.8065,2.29,12.97,47.84626,-54.09684
2020-04-30 00:29:01+00:00,243.6481,2.2,12.97,47.84626,-54.09684
2020-04-30 00:39:01+00:00,249.7064,2.2,12.97,47.84626,-54.09684
2020-04-30 00:49:01+00:00,247.0264,2.2,12.97,47.84626,-54.09684
2020-04-30 00:59:01+00:00,245.2947,2.2,12.97,47.84626,-54.09684
2020-04-30 01:09:01+00:00,254.4248,2.19,12.97,47.84626,-54.09684
2020-04-30 01:19:01+00:00,264.8847,2.1,12.65,47.84626,-54.09684
2020-04-30 01:29:01+00:00,264.7513,2.1,12.65,47.84626,-54.09684
2020-04-30 01:39:01+00:00,268.2681,2.1,12.65,47.84626,-54.09684
2020-04-30 01:49:01+00:00,279.7781,2.1,12.65,47.84626,-54.09684
2020-04-30 01:59:01+00:00,284.8981,2.0,12.65,47.84626,-54.09684
2020-04-30 02:09:01+00:00,281.6364,2.1,12.65,47.84626,-54.09684
2020-04-30 02:19:01+00:00,291.2147,2.11,12.65,47.84626,-54.09684
2020-04-30 02:29:01+00:00,303.678,2.11,12.65,47.84626,-54.09684
2020-04-30 02:39:01+00:00,303.6813,2.1,12.65,47.84626,-54.09684
2020-04-30 02:49:01+00:00,299.6481,2.1,12.65,47.84626,-54.09684
2020-04-30 02:59:01+00:00,307.4097,1.88,12.65,47.84626,-54.09684
2020-04-30 03:09:01+00:00,314.7064,1.4,12.65,47.84626,-54.09684
2020-04-30 03:19:01+00:00,311.663,1.98,12.65,47.84626,-54.09684
2020-04-30 03:29:01+00:00,312.5731,2.1,12.65,47.84626,-54.09684
2020-04-30 03:39:01+00:00,321.8563,2.15,12.65,47.84626,-54.09684
2020-04-30 03:49:01+00:00,326.5413,2.19,12.65,47.84626,-54.09684
2020-04-30 03:59:01+00:00,322.683,2.2,12.65,47.84626,-54.09684
2020-04-30 04:09:01+00:00,323.8713,2.2,12.65,47.84626,-54.09684
2020-04-30 04:19:01+00:00,329.43300000000005,1.61,12.65,47.84626,-54.09684
2020-04-30 04:29:01+00:00,330.2329,2.1,12.65,47.84626,-54.09684
2020-04-30 04:39:01+00:00,328.0030000000001,2.17,12.65,47.84626,-54.09684
2020-04-30 04:49:01+00:00,330.8313,2.1,12.65,47.84626,-54.09684
2020-04-30 04:59:01+00:00,332.798,2.04,12.65,47.84626,-54.09684
2020-04-30 05:09:01+00:00,331.3712,2.15,12.65,47.84626,-54.09684
2020-04-30 05:19:01+00:00,325.673,2.1,12.65,47.84626,-54.09684
2020-04-30 05:29:01+00:00,322.6198,2.1,12.65,47.84626,-54.09684
2020-04-30 05:39:01+00:00,323.8097,1.9,12.65,47.84626,-54.09684
2020-04-30 05:49:01+00:00,321.9297,2.06,12.65,47.84626,-54.09684
2020-04-30 05:59:01+00:00,314.9614,2.1,12.65,47.84626,-54.09684
2020-04-30 06:09:01+00:00,311.4197,1.7,12.65,47.84626,-54.09684
2020-04-30 06:19:01+00:00,311.7546,1.59,12.57,47.84626,-54.09684
2020-04-30 06:29:01+00:00,308.08799999999997,1.54,12.57,47.84626,-54.09684
2020-04-30 06:39:01+00:00,299.063,1.57,12.57,47.84626,-54.09684
2020-04-30 06:49:01+00:00,296.6747,1.6,12.57,47.84626,-54.09684
2020-04-30 06:59:01+00:00,294.5747,1.5,12.57,47.84626,-54.09684
2020-04-30 07:09:01+00:00,286.528,1.51,12.57,47.84626,-54.09684
2020-04-30 07:19:01+00:00,276.2914,1.87,12.57,47.84626,-54.09684
2020-04-30 07:29:01+00:00,271.6181,2.07,12.57,47.84626,-54.09684
2020-04-30 07:39:01+00:00,266.2814,2.02,12.57,47.84626,-54.09684
2020-04-30 07:49:01+00:00,255.9981,2.0,12.57,47.84626,-54.09684
2020-04-30 07:59:01+00:00,250.3048,1.9,12.57,47.84626,-54.09684
2020-04-30 08:09:01+00:00,247.7781,1.9,12.57,47.84626,-54.09684
2020-04-30 08:19:01+00:00,241.5448,1.9,12.57,47.84626,-54.09684
2020-04-30 08:29:01+00:00,228.6264,1.7,12.57,47.84626,-54.09684
2020-04-30 08:39:01+00:00,223.2665,1.63,12.57,47.84626,-54.09684
2020-04-30 08:49:01+00:00,220.3581,1.7,12.57,47.84626,-54.09684
2020-04-30 08:59:01+00:00,212.8898,1.77,12.57,47.84626,-54.09684
2020-04-30 09:09:01+00:00,207.0847,1.8,12.57,47.84626,-54.09684
2020-04-30 09:19:01+00:00,207.5398,1.83,12.57,47.84626,-54.09684
2020-04-30 09:29:01+00:00,205.7465,1.9,12.57,47.84626,-54.09684
2020-04-30 09:39:01+00:00,204.3981,1.9,12.57,47.84626,-54.09684
2020-04-30 09:49:01+00:00,202.8531,1.9,12.57,47.84626,-54.09684
2020-04-30 09:59:01+00:00,202.2548,1.91,12.57,47.84626,-54.09684
2020-04-30 10:09:01+00:00,206.5931,1.9,12.57,47.84626,-54.09684
2020-04-30 10:19:01+00:00,207.2864,1.9,12.73,47.84626,-54.09684
2020-04-30 10:29:01+00:00,207.7147,1.9,12.73,47.84626,-54.09684
2020-04-30 10:39:01+00:00,209.9565,1.9,12.73,47.84626,-54.09684
2020-04-30 10:49:01+00:00,210.7082,1.9,12.73,47.84626,-54.09684
2020-04-30 10:59:01+00:00,209.9481,1.9,12.73,47.84626,-54.09684
2020-04-30 11:09:01+00:00,210.6765,1.9,12.73,47.84626,-54.09684
2020-04-30 11:19:01+00:00,208.3498,1.9,14.16,47.84626,-54.09684
2020-04-30 11:29:01+00:00,205.2731,1.8,14.16,47.84626,-54.09684
2020-04-30 11:39:01+00:00,209.0764,1.6,14.16,47.84626,-54.09684
2020-04-30 11:49:01+00:00,212.6564,1.52,14.16,47.84626,-54.09684
2020-04-30 11:59:01+00:00,211.1764,1.68,14.16,47.84626,-54.09684
2020-04-30 12:09:01+00:00,215.3365,1.78,14.16,47.84626,-54.09684
2020-04-30 12:19:01+00:00,221.4198,1.7,14.64,47.84626,-54.09684
2020-04-30 12:29:01+00:00,222.9565,1.81,14.64,47.84626,-54.09684
2020-04-30 12:39:01+00:00,224.4714,1.98,14.64,47.84626,-54.09684
2020-04-30 12:49:01+00:00,230.4247,1.5,14.64,47.84626,-54.09684
2020-04-30 12:59:01+00:00,231.8164,1.4,14.64,47.84626,-54.09684
2020-04-30 13:09:01+00:00,232.1248,1.3,14.64,47.84626,-54.09684
2020-04-30 13:19:01+00:00,236.6981,1.3,14.64,47.84626,-54.09684
2020-04-30 13:29:01+00:00,238.4198,1.3,14.64,47.84626,-54.09684
2020-04-30 13:39:01+00:00,239.4181,1.3,14.64,47.84626,-54.09684
2020-04-30 13:49:01+00:00,245.6181,1.31,14.64,47.84626,-54.09684
2020-04-30 13:59:01+00:00,252.8164,1.4,14.64,47.84626,-54.09684
2020-04-30 14:09:01+00:00,253.5447,1.2,14.64,47.84626,-54.09684
2020-04-30 14:19:01+00:00,254.8164,1.25,14.64,47.84626,-54.09684
2020-04-30 14:29:01+00:00,261.7297,1.2,14.64,47.84626,-54.09684
2020-04-30 14:39:01+00:00,267.0131,1.27,14.64,47.84626,-54.09684
2020-04-30 14:49:01+00:00,265.5864,1.69,14.64,47.84626,-54.09684
2020-04-30 14:59:01+00:00,266.8531,1.7,14.64,47.84626,-54.09684
2020-04-30 15:09:01+00:00,278.2747,2.06,14.64,47.84626,-54.09684
2020-04-30 15:19:01+00:00,285.7498,1.2,14.56,47.84626,-54.09684
2020-04-30 15:29:01+00:00,284.6281,1.43,14.56,47.84626,-54.09684
2020-04-30 15:39:01+00:00,285.8881,1.2,14.56,47.84626,-54.09684
2020-04-30 15:49:01+00:00,290.1996,1.2,14.56,47.84626,-54.09684
2020-04-30 15:59:01+00:00,288.1831,1.21,14.56,47.84626,-54.09684
2020-04-30 16:09:01+00:00,286.9698,1.2,14.56,47.84626,-54.09684
2020-04-30 16:19:01+00:00,292.8513,1.2,14.4,47.84626,-54.09684
2020-04-30 16:29:01+00:00,295.3147,1.2,14.4,47.84626,-54.09684
2020-04-30 16:39:01+00:00,294.6797,1.22,14.4,47.84626,-54.09684
2020-04-30 16:49:01+00:00,294.5247,1.22,14.4,47.84626,-54.09684
2020-04-30 16:59:01+00:00,292.6964,1.23,14.4,47.84626,-54.09684
2020-04-30 17:09:01+00:00,291.3698,1.25,14.4,47.84626,-54.09684
2020-04-30 17:19:01+00:00,296.6447,1.28,14.32,47.84626,-54.09684
2020-04-30 17:29:01+00:00,297.8497,1.29,14.32,47.84626,-54.09684
2020-04-30 17:39:01+00:00,291.1797,1.4,14.32,47.84626,-54.09684
2020-04-30 17:49:01+00:00,290.4946,1.56,14.32,47.84626,-54.09684
2020-04-30 17:59:01+00:00,295.3581,1.5,14.32,47.84626,-54.09684
2020-04-30 18:09:01+00:00,292.8163,1.5,14.32,47.84626,-54.09684
2020-04-30 18:19:01+00:00,283.9863,1.5,14.08,47.84626,-54.09684
2020-04-30 18:29:01+00:00,282.8931,1.43,14.08,47.84626,-54.09684
2020-04-30 18:39:01+00:00,284.9797,1.5,14.08,47.84626,-54.09684
2020-04-30 18:49:01+00:00,277.8198,1.68,14.08,47.84626,-54.09684
2020-04-30 18:59:01+00:00,268.1048,1.8,14.08,47.84626,-54.09684
2020-04-30 19:09:01+00:00,270.4964,1.7,14.08,47.84626,-54.09684
2020-04-30 19:19:01+00:00,271.5098,1.73,13.92,47.84626,-54.09684
2020-04-30 19:29:01+00:00,265.7747,1.78,13.92,47.84626,-54.09684
2020-04-30 19:39:01+00:00,256.8198,1.6,13.92,47.84626,-54.09684
2020-04-30 19:49:01+00:00,253.8531,1.6,13.92,47.84626,-54.09684
2020-04-30 19:59:01+00:00,245.8764,1.69,13.92,47.84626,-54.09684
2020-04-30 20:09:01+00:00,236.2681,2.01,13.92,47.84626,-54.09684
2020-04-30 20:19:01+00:00,229.2365,2.0,13.84,47.84626,-54.09684
2020-04-30 20:29:01+00:00,226.7581,2.07,13.84,47.84626,-54.09684
2020-04-30 20:39:01+00:00,221.7465,2.1,13.84,47.84626,-54.09684
2020-04-30 20:49:01+00:00,217.0698,2.2,13.84,47.84626,-54.09684
2020-04-30 20:59:01+00:00,217.8931,2.3,13.84,47.84626,-54.09684
2020-04-30 21:09:01+00:00,216.1647,2.39,13.84,47.84626,-54.09684
2020-04-30 21:19:01+00:00,212.6831,2.4,13.76,47.84626,-54.09684
2020-04-30 21:29:01+00:00,213.3782,2.4,13.76,47.84626,-54.09684
2020-04-30 21:39:01+00:00,212.5247,2.4,13.76,47.84626,-54.09684
2020-04-30 21:49:01+00:00,208.1214,2.56,13.76,47.84626,-54.09684
2020-04-30 21:59:01+00:00,207.7031,2.7,13.76,47.84626,-54.09684
2020-04-30 22:09:01+00:00,209.2397,2.78,13.76,47.84626,-54.09684
2020-04-30 22:19:01+00:00,203.5981,2.8,13.44,47.84626,-54.09684
2020-04-30 22:29:01+00:00,199.8765,2.8,13.44,47.84626,-54.09684
2020-04-30 22:39:01+00:00,204.8698,2.83,13.44,47.84626,-54.09684
2020-04-30 22:49:01+00:00,210.1881,2.86,13.44,47.84626,-54.09684
2020-04-30 22:59:01+00:00,212.7664,2.85,13.44,47.84626,-54.09684
2020-04-30 23:09:01+00:00,215.7914,2.8,13.44,47.84626,-54.09684
2020-04-30 23:19:01+00:00,219.3898,2.8,13.05,47.84626,-54.09684
2020-04-30 23:29:01+00:00,220.0331,2.8,13.05,47.84626,-54.09684
2020-04-30 23:39:01+00:00,217.2047,2.8,13.05,47.84626,-54.09684
2020-04-30 23:49:01+00:00,219.3065,2.8,13.05,47.84626,-54.09684
2020-04-30 23:59:01+00:00,222.6331,2.8,13.05,47.84626,-54.09684
